Location: Saluda
(35.2377°N, 82.3468°W)
Time: 14:52:02
(UTC+00:00)

Tiros 1 despin weight - Visible Passes

Search period start: 03 October 2022 00:00
Search period end: 13 October 2022 00:00
Orbit: 590 x 638 km, 48.2° (Epoch: 02 October)

Date Brightness Start Highest point End Pass type
(mag) Time Alt. Az. Time Alt. Az. Time Alt. Az.
03 Oct ? 00:51:39 10° NNW 00:54:37 17° N 00:55:41 16° NNE visible
04 Oct ? 01:07:05 10° NNW 01:10:16 20° N 01:10:16 20° N visible
04 Oct ? 23:40:47 10° NW 23:43:33 16° N 23:46:21 10° NE visible
05 Oct ? 01:22:18 10° NW 01:24:52 23° N 01:24:52 23° N visible
05 Oct ? 23:56:23 10° NNW 23:59:26 17° N 00:02:31 10° NE visible
06 Oct ? 01:37:29 10° NW 01:39:30 23° NNW 01:39:30 23° NNW visible
07 Oct ? 00:11:42 10° NNW 00:15:14 22° NNE 00:17:11 17° NE visible
07 Oct ? 01:52:42 10° NW 01:54:10 20° NW 01:54:10 20° NW visible
08 Oct ? 00:26:52 10° NW 00:30:56 31° NNE 00:31:55 28° NE visible
08 Oct ? 02:08:06 10° WNW 02:08:54 15° WNW 02:08:54 15° WNW visible
09 Oct ? 00:42:02 10° NW 00:46:28 49° NNE 00:46:42 49° NE visible
10 Oct ? 00:57:17 10° NW 01:01:35 79° NW 01:01:35 79° NW visible
10 Oct ? 23:31:24 10° NW 23:35:34 35° NNE 23:39:35 11° E visible
11 Oct ? 01:12:46 10° WNW 01:16:35 43° WSW 01:16:35 43° WSW visible
11 Oct ? 23:46:33 10° NW 23:51:03 60° NE 23:54:42 15° ESE visible
12 Oct ? 01:28:41 10° W 01:31:43 22° WSW 01:31:43 22° WSW visible
